This demonstration page uses our WeatherBlox Daily Observations layout. Learn more.

Left ArrowRight Arrow

39.95238, -75.16362

Hourly Observations for May 23, 2015

Temp ( °F °C ) Dew Point ( °F °C ) Humidity (%) Winds ( mph kmh ) Pressure ( in mb ) Visibility ( mi km ) Precip ( " mm )
12:54 am 00:54 Clear 62 16.7 26 -3.3 25 25 NW 8 13 30.21 1023 10 16 0.00 0.00
1:54 am 01:54 Clear 60 15.6 28 -2.2 30 30 NNW 12 19 30.24 1024 10 16 0.00 0.00
2:54 am 02:54 Mostly Clear 59 15 30 -1.1 33 33 NW 13 20 30.27 1025 10 16 0.00 0.00
3:54 am 03:54 Mostly Clear 55 12.8 32 0 42 42 N 12 19 30.29 1026 10 16 0.00 0.00
4:54 am 04:54 Clear 53 11.7 31 -0.6 43 43 N 9 15 30.30 1026 10 16 0.00 0.00
5:54 am 05:54 Mostly Sunny 51 10.6 28 -2.2 41 41 N 9 15 30.35 1028 10 16 0.00 0.00
6:54 am 06:54 Partly Cloudy 52 11.1 27 -2.8 38 38 N 10 17 30.39 1029 10 16 0.00 0.00
7:54 am 07:54 Partly Cloudy 53 11.7 27 -2.8 37 37 N 10 17 30.43 1031 10 16 0.00 0.00
8:54 am 08:54 Partly Cloudy 55 12.8 27 -2.8 34 34 N 8 13 30.45 1031 10 16 0.00 0.00
9:54 am 09:54 Partly Cloudy 57 13.9 25 -3.9 29 29 NNE 12 19 30.45 1031 10 16 0.00 0.00
10:54 am 10:54 Partly Cloudy 58 14.4 22 -5.6 25 25 WNW 7 11 30.45 1031 10 16 0.00 0.00
11:54 am 11:54 Mostly Sunny 61 16.1 25 -3.9 25 25 VRB 7 11 30.45 1031 10 16 0.00 0.00
12:54 pm 12:54 Mostly Sunny 63 17.2 24 -4.4 23 23 VRB 5 7 30.44 1031 10 16 0.00 0.00
1:54 pm 13:54 Sunny 65 18.3 28 -2.2 25 25 S 8 13 30.42 1030 10 16 0.00 0.00
2:54 pm 14:54 Sunny 67 19.4 25 -3.9 20 20 SSW 13 20 30.40 1030 10 16 0.00 0.00
3:54 pm 15:54 Sunny 69 20.6 28 -2.2 22 22 SW 12 19 30.38 1029 10 16 0.00 0.00
4:54 pm 16:54 Sunny 70 21.1 28 -2.2 21 21 SW 13 20 30.37 1029 10 16 0.00 0.00
5:54 pm 17:54 Mostly Sunny 70 21.1 27 -2.8 20 20 SW 12 19 30.37 1028 10 16 0.00 0.00
6:54 pm 18:54 Mostly Sunny 70 21.1 27 -2.8 20 20 W 9 15 30.36 1028 10 16 0.00 0.00
7:54 pm 19:54 Mostly Sunny 68 20 33 0.6 27 27 SW 12 19 30.36 1028 10 16 0.00 0.00
8:54 pm 20:54 Mostly Clear 65 18.3 37 2.8 36 36 SSW 7 11 30.37 1028 10 16 0.00 0.00
9:54 pm 21:54 Clear 62 16.7 39 3.9 43 43 SSW 8 13 30.38 1029 10 16 0.00 0.00
10:54 pm 22:54 Clear 60 15.6 43 6.1 53 53 SSW 10 17 30.38 1029 10 16 0.00 0.00
11:54 pm 23:54 Mostly Clear 58 14.4 46 7.8 65 65 SSW 8 13 30.38 1029 10 16 0.00 0.00

Powered by AerisWeather